Regional Weather Roundup
Issued by NWS

Home | Current Version | Previous Version | Text Only | Print | Product List | Glossary Off
Versions: 1 2 3 4 5 6 7 8 9 10 11 12 13 14 15 16 17 18 19 20 21 22 23 24 25 26 27 28 29 30 31 32 33 34 35 36 37 38 39 40 41 42 43 44 45 46 47 48 49 50

000
ASUS43 KMKX 051621
RWRWI

WISCONSIN REGIONAL WEATHER ROUNDUP
NATIONAL WEATHER SERVICE MILWAUKEE/SULLIVAN WI
1100 AM CDT SAT SEP 05 2015

NOTE: "FAIR" INDICATES FEW OR NO CLOUDS BELOW 12,000 FEET WITH NO
SIGNIFICANT WEATHER AND/OR OBSTRUCTIONS TO VISIBILITY.

WIZ001-002-006>008-014>016-023>028-051700-
NORTHWEST WISCONSIN

CITY           SKY/WX    TMP DP  RH WIND       PRES   REMARKS
SUPERIOR ARPT  MOSUNNY   70  65  86 E7        29.96F
ASHLAND        SUNNY     80  72  76 S5        29.99F HX  84
HAYWARD        MOSUNNY   78  68  71 S13       30.02S HX  80
SIREN          PTSUNNY   80  69  71 SE12      29.97F HX  82
CUMBERLAND     PTSUNNY   73  68  83 SE8       30.00F
RICE LAKE      PTSUNNY   76  69  78 SE6       30.02S
CHETEK         PTSUNNY   76  70  82 SE8       30.01F
LADYSMITH      MOSUNNY   80  68  68 S9        30.06S HX  82
EAU CLAIRE     CLOUDY    79  70  74 SE8       30.01R HX  82
MENOMONIE      CLOUDY    77  72  83 SE7       30.00F
NEW RICHMOND   CLOUDY    80  69  70 S10       29.97S HX  83
OSCEOLA        PTSUNNY   82  71  69 S12       29.98F HX  85
$$

WIZ003>005-009-010-017-018-051700-
NORTH CENTRAL WISCONSIN

CITY           SKY/WX    TMP DP  RH WIND       PRES   REMARKS
MANITOWISH WTR SUNNY     75  71  86 S5        30.07S
ARBOR VITAE    SUNNY     77  71  83 CALM      30.08S
WOODRUFF       SUNNY     77  71  83 CALM      30.08S
RHINELANDER    MOSUNNY   77  69  76 SW5       30.09S
EAGLE RIVER    MOSUNNY   75  67  77 CALM      30.08F
LAND O LAKES   PTSUNNY   74  67  79 S5        30.10S
PHILLIPS       PTSUNNY   78  70  76 SE5       30.06R
TOMAHAWK       SUNNY     76  68  76 CALM      30.09R
MEDFORD        MOSUNNY   76  69  79 SE5       30.08R
MERRILL        SUNNY     77  70  77 SE5       30.08S
$$

WIZ029-030-035-036-043>047-051700-
CENTRAL WISCONSIN

CITY           SKY/WX    TMP DP  RH WIND       PRES   REMARKS
WAUSAU         SUNNY     75  68  78 S6        30.07S
MOSINEE        SUNNY     77  72  83 VRB5      30.09F
MARSHFIELD     MOSUNNY   78  66  66 SE7       30.07S HX  80
STEVENS POINT  SUNNY     76  68  77 S5        30.08F
WAUPACA        PTSUNNY   79  71  76 S5        30.09R HX  83
WAUTOMA        SUNNY     80  69  69 VRB3      30.08S HX  83
WISC RAPIDS    SUNNY     82  67  60 SE6       30.08S HX  84
CAMP DOUGLAS   MOSUNNY   82  76  81 SE6       30.05S HX  89
$$

WIZ011>013-019>022-031-037>040-048>050-051700-
NORTHEAST WISCONSIN

CITY           SKY/WX    TMP DP  RH WIND       PRES   REMARKS
ANTIGO         MOSUNNY   74  69  82 S7        30.10S
SHAWANO        NOT AVBL
OCONTO         CLOUDY    69  69 100 CALM      30.09F
STURGEON BAY   CLOUDY    72  66  83 S8        30.11F
GREEN BAY      PTSUNNY   76  67  73 SE5       30.09S
MANITOWOC      MOSUNNY   67  66  97 MISG      30.10F
APPLETON       MOSUNNY   75  66  73 SE6       30.08S
CLINTONVILLE   MOSUNNY   77  66  69 S6        30.08R
OSHKOSH        SUNNY     77  69  76 S5        30.08S
$$

WIZ032>034-041-042-053>061-051700-
SOUTHWEST WISCONSIN

CITY           SKY/WX    TMP DP  RH WIND       PRES   REMARKS
LA CROSSE      CLOUDY    80  70  71 S8        30.02S HX  83
SPARTA         MOSUNNY   80  64  58 S6        30.05S HX  82
VIROQUA        CLOUDY    80  71  72 S7        30.07R HX  84
BOSCOBEL       PTSUNNY   79  70  74 SW7       30.05S HX  82
PRAIRIE DU CHI MOSUNNY   83  70  64 SE3       30.04F HX  87
PLATTEVILLE    MOSUNNY   79  73  83 S9        30.09R HX  82
$$

WIZ056-057-062-063-064-067-068-051700-
SOUTH CENTRAL WISCONSIN

CITY           SKY/WX    TMP DP  RH WIND       PRES   REMARKS
REEDSBURG      PTSUNNY   80  70  71 E6        30.07R HX  82
BARABOO/DELLS  PTSUNNY   81  65  58 S6        30.08R HX  82
LONE ROCK      CLOUDY    76  70  82 E6        30.07R
MINERAL POINT  CLOUDY    75  72  88 S5        30.09R
MADISON        PTSUNNY   81  67  62 SE3       30.08R HX  83
MIDDLETON      PTSUNNY   79  69  71 SE5       30.09S HX  81
WATERTOWN      SUNNY     79  74  83 SE5       30.09S HX  83
MONROE         CLOUDY    72  70  94 SE6       30.10R FOG
JANESVILLE     MOSUNNY   82  72  69 S7        30.09R HX  87
$$

WIZ051-052-058>065-066-070>072-051700-
SOUTHEAST WISCONSIN

CITY           SKY/WX    TMP DP  RH WIND       PRES   REMARKS
MILWAUKEE      CLOUDY    70  66  87 E7        30.11R
WAUKESHA       MOSUNNY   72  68  88 SE3       30.12R
MILWAUKEE/TIMM PTSUNNY   73  66  78 CALM      30.11R
RACINE         CLOUDY    73  67  81 NE8       30.13R
BURLINGTON     SUNNY     78  68  71 CALM      30.11S HX  80
KENOSHA        PTSUNNY   80  70  71 W6        30.11R HX  83
FOND DU LAC    SUNNY     78  70  76 SE3       30.09S HX  80
SHEBOYGAN      MOSUNNY   75  69  81 SE3       30.10S
WEST BEND      CLOUDY    72  66  83 S3        30.11S HAZE
JUNEAU         SUNNY     76  70  81 E6        30.10S
$$

LSZ147-162-051700-
LAKE SUPERIOR

STATION/POSITION TIME  TEMP    WIND        PRES    WAVE
                       AIR SEA DIR/SP/G            HT/PER
                 (UTC) (F)     (DEG/KT/KT) (MB)    (FT/S)
W MID LAKE BUOY  1550   63 59  100/  2/  4 1016.2S   1/ 3
DEVILS ISLAND    1600   64      70/  6/  7 1015.4S
PORT WING        1500           10/  1/  8 1014.9F
SAXON HARBOR     1500   78     210/  5/  8 1015.2F
$$

LMZ867-665-643>646-051700-
LAKE MICHIGAN

STATION/POSITION TIME  TEMP    WIND        PRES    WAVE
                       AIR SEA DIR/SP/G            HT/PER
                 (UTC) (F)     (DEG/KT/KT) (MB)    (FT/S)
CHAMBERS ISLAND  1500   69      60/  4/  5 1018.6F
S GREEN BAY BUOY 1500   65 68   60/  2/  4 1020.2F
N MID LAKE BUOY  1550   67 67  280/  2/  4 1018.5S   0
NORTHPORT PIER   1500   67     330/  3/  4 1018.6F
SISTER BAY       1526   69        CALM       N/A
ALGOMA LAKESHORE 1514          180/  6/  7   N/A
KEWAUNEE LAKESHO 1600   61     160/  4/  4 1018.6R
SHEBOYGAN LAKESH 1600   61     120/  8/  8 1019.7R
PORT WASHINGTON  1540   65     160/  3/  4 1020.0S
ATWATER BUOY     1600   61 60  280/  2/  2 1021.2R
MILWAUKEE LAKESH 1610   63      40/  2/  2   N/A
S MID LAKE BUOY  1550   72 71  170/ 14/ 17 1019.6R   1/ 2
KENOSHA   LAKESH 1600   66     120/  5/  6 1019.6R
$$

TC  - TEMPERATURE IN CELSIUS
VSB - VISIBILITY IN STATUTE MILES
WCI - WIND CHILL INDEX
HX  - HEAT INDEX




USA.gov is the U.S. government's official web portal to all federal, state and local government web resources and services.